Location: Palomar Mountain Lodge
(33.3110°N, 116.8495°W)
Time: 03:43:48
(UTC-08:00)

ERS-2 - Pass Details

Date: 12 July 2018
Orbit: 497 x 501 km, 98.5° (Epoch: 19 December)

Event Time Altitude Azimuth Distance (km) Brightness Sun altitude
Exits shadow 21:42:54 19° 203° (SSW) 1,245 3.9 -18.6°
Maximum altitude 21:45:04 36° 260° (W) 804 3.4 -18.9°
Drops below altitude 10° 21:48:27 10° 328° (NNW) 1,697 6.0 -19.4°
Sets 21:50:39 0° 338° (NNW) 2,585 7.0 -19.8°
